Tracking 22779 objects as of 10-Apr-2021
HD Live streaming from Space Station
objects crossing your sky now

CZ-3 DEB

Track CZ-3 DEB now!


NORAD ID: 29445
Int'l Code: 1984-035D
Perigee: 460.6 km
Apogee: 32,626.7 km
Inclination: 30.2 °
Period: 575.3 minutes
Semi major axis: 22914 km
RCS: 0.1344 m2 (medium)
Launch date: April 8, 1984
Source: People's Republic of China (PRC)
Launch site: Xichang Space Center, China (XSC)

Note: This is SATELLITE DEBRIS
aabbcc
Your satellite tracking list
Your tracking list is empty




NASA's NSSDC Master Catalog

Two Line Element Set (TLE):
1 29445U 84035D   21099.03351860  .00000905  00000-0  46735-2 0  9992
2 29445  30.1727 224.7382 7018665 129.8425 316.3908  2.50283776142881
Source of the keplerian elements: AFSPC